Voltar ao catálogo

AYAME 2 DEB

AtivoHEO
NORAD 38684·DEBRIS·🇯🇵 Japan

Lançado Feb 22, 1980 de Tanegashima Space Center

Loading…

Próximas Passagens (próximas 24 horas)

TLE

AtualizadoSource: Space-Track

Época: Sep 13, 2026, 17:30 UTC

1 38684U 80018E   26256.72961516 -.00000133  00000-0  00000-0 0  9992
2 38684  10.0701 338.9525 4482674  59.0731 337.3113  1.77316338 28397

Acompanhe AYAME 2 DEB em tempo real com AllMySat

Download on the App Store